Torna al catalogo

ONEWEB-0396

AttivoComunicazioniPO
NORAD 50476·PAYLOAD·🇬🇧 United Kingdom

Lanciato Dec 27, 2021 da Baikonur Cosmodrome

Loading…

Prossimi Passaggi (prossime 24 ore)

TLE

AggiornatoSource: CelesTrak SupGP

Epoca: Sep 14, 2026, 22:28 UTC

1 50476C 21132H   26257.93661296  .00001702  00000+0  43222-2 0  2576
2 50476  87.9166 317.6259 0002124 103.1133 292.3668 13.18685172    14

Traccia ONEWEB-0396 in tempo reale con AllMySat

Download on the App Store